[[{"header":{"parameterUnit":"m.s-1","parameterCategory":1,"la1":30.2991,"la2":30.254,"lo1":-89.0895,"lo2":-89.0444,"dy":0.0017,"dx":0.0017,"nx":28,"ny":28,"refTime":"2024-03-15T03:00:00:Z","depth":0,"parameterNumber":2,"parameterNumberName":"U-component_of_WINDS"},"data":[0,0,0,0,0,0,0,0,0,0,0,0,0,0,0,0,0,0,0,0,0,0,0,0,0,0,0,0,0,0,0,0,0,0,0,0,0,0,0,0,0,0,0,0,0,0,0,0,0,0,0,0,0,0,0,0,0,0,-0.8914,-0.8915,0,-0.8965,-0.8966,-0.8966,-0.8992,-0.8992,-0.8992,-0.8992,-0.9045,-0.9046,-0.9047,0,0,0,0,0,0,0,0,0,0,0,0,0,-0.8838,-0.884,-0.8914,-0.8915,-0.8915,-0.8965,-0.8966,-0.8966,-0.8992,-0.8992,-0.8992,-0.8992,-0.9044,-0.9046,-0.9048,0,0,0,0,0,0,0,0,0,0,0,0,0,-0.8879,-0.884,-0.8914,-0.8934,-0.8936,-0.8965,-0.8966,-0.8967,-0.8992,-0.8992,-0.8992,-0.8992,-0.9044,-0.9046,-0.9048,-0.906,0,0,-0.9054,-0.9055,0,0,0,0,0,0,0,0,-0.8876,-0.8881,-0.893,-0.8933,-0.8935,-0.8972,-0.8958,-0.8998,-0.8992,-0.8971,-0.8992,-0.8992,-0.9021,-0.9025,-0.9034,-0.9063,-0.9065,-0.9054,-0.9056,-0.9057,-0.9057,0,0,0,0,0,0,0,-0.8873,-0.8879,-0.8934,-0.8931,-0.8934,-0.894,-0.8946,-0.8966,-0.8995,-0.8973,-0.8975,-0.898,-0.9022,-0.9032,-0.9036,-0.9066,-0.9054,-0.9056,-0.9057,-0.9058,-0.9108,-0.9108,0,0,0,0,0,0,-0.8867,-0.8877,-0.8933,-0.8936,-0.8905,-0.8942,-0.8948,-0.896,-0.8995,-0.9,-0.898,-0.8981,-0.9028,-0.9033,-0.9037,-0.9055,-0.9056,-0.9058,-0.906,-0.9108,-0.9108,-0.9108,0,0,0,0,0,0,-0.8866,-0.8872,-0.8931,-0.8907,-0.8915,-0.8943,-0.8956,-0.8961,-0.8971,-0.9001,-0.9006,-0.8985,-0.9029,-0.9035,-0.9054,-0.9057,-0.9059,-0.9061,-0.9108,-0.9108,-0.9108,-0.9089,0,0,0,0,0,0,-0.8863,-0.8871,-0.8877,-0.8907,-0.8916,-0.8947,-0.8957,-0.8962,-0.8975,-0.8977,-0.9007,-0.9012,-0.9029,-0.9051,-0.9057,-0.906,-0.9063,-0.9107,-0.9108,-0.9108,-0.9089,-0.9088,-0.9087,0,0,0,0,0,-0.8861,-0.8869,-0.8877,-0.8883,-0.8923,-0.8947,-0.8952,-0.8972,-0.8975,-0.898,-0.8999,-0.9011,-0.9056,-0.9053,-0.9059,-0.9063,-0.9107,-0.9108,-0.9108,-0.909,-0.9089,-0.9087,0,0,0,0,0,0,-0.8839,-0.8874,-0.8882,-0.8901,-0.8921,-0.8951,-0.8958,-0.897,-0.8989,-0.899,-0.9014,-0.902,-0.9038,-0.9053,-0.9049,-0.9077,-0.9083,-0.9084,-0.9067,-0.9066,-0.9065,-0.9061,-0.9065,0,0,0,0,0,-0.8836,-0.8853,-0.8882,-0.8896,-0.8905,-0.893,-0.8941,-0.8955,-0.8976,-0.8984,-0.9005,-0.9025,-0.9044,-0.9056,-0.9075,-0.9092,-0.9098,-0.9097,-0.9096,-0.9095,-0.9096,-0.9106,-0.9106,-0.9108,-0.9108,-0.9108,0,0,-0.8831,-0.8852,-0.8861,-0.8892,-0.8909,-0.8925,-0.8937,-0.8954,-0.8966,-0.8987,-0.9007,-0.9023,-0.9047,-0.9065,-0.9075,-0.9078,-0.9097,-0.9095,-0.9094,-0.9096,-0.9106,-0.9106,-0.9106,-0.9108,-0.9108,-0.9108,0,0,-0.883,-0.8848,-0.8861,-0.8877,-0.8902,-0.8919,-0.8922,-0.895,-0.8961,-0.8982,-0.8998,-0.9013,-0.9045,-0.9061,-0.9074,-0.9078,-0.909,-0.9084,-0.9079,-0.9088,-0.9088,-0.9088,-0.909,-0.909,-0.9085,-0.9085,-0.9085,0,-0.8821,-0.8846,-0.8866,-0.8882,-0.8895,-0.8914,-0.8928,-0.8943,-0.8973,-0.8982,-0.8985,-0.9025,-0.9043,-0.9066,-0.9067,-0.9076,-0.9081,-0.9081,-0.9086,-0.9086,-0.9087,-0.9089,-0.9089,-0.9084,-0.9084,-0.9084,-0.9084,0,-0.8833,-0.885,-0.8858,-0.8886,-0.89,-0.8914,-0.8937,-0.8949,-0.8961,-0.8976,-0.8997,-0.9019,-0.9042,-0.9049,-0.9061,-0.9073,-0.9074,-0.9082,-0.9088,-0.9085,-0.9087,-0.9088,-0.9083,-0.9083,-0.9083,-0.9083,0,0,-0.882,-0.8859,-0.8861,-0.8874,-0.8903,-0.8917,-0.8932,-0.8955,-0.8964,-0.8984,-0.8998,-0.9024,-0.9031,-0.9045,-0.9059,-0.9068,-0.907,-0.9074,-0.9075,-0.9073,-0.9085,-0.9079,-0.9079,-0.9077,-0.9078,-0.9078,-0.9083,0,-0.8823,-0.8851,-0.887,-0.8891,-0.8907,-0.8925,-0.8939,-0.8958,-0.8973,-0.8989,-0.9006,-0.9024,-0.9032,-0.904,-0.9049,-0.9068,-0.9073,-0.9067,-0.909,-0.9091,-0.9084,-0.9081,-0.9075,-0.9078,-0.9084,-0.9084,-0.9084,0,-0.8831,-0.885,-0.8872,-0.8899,-0.8906,-0.8918,-0.894,-0.8955,-0.8977,-0.8988,-0.9003,-0.9017,-0.9034,-0.9039,-0.9062,-0.9059,-0.9069,-0.9079,-0.908,-0.9083,-0.9087,-0.9084,-0.908,-0.908,-0.9085,-0.9085,-0.9085,0,-0.8819,-0.885,-0.8868,-0.8878,-0.891,-0.8918,-0.8931,-0.8953,-0.8966,-0.8985,-0.8993,-0.9014,-0.9026,-0.9042,-0.9062,-0.9063,-0.9084,-0.9089,-0.9093,-0.9092,-0.9097,-0.9096,-0.9094,-0.9103,-0.9103,-0.9103,-0.9103,0,-0.8821,-0.8834,-0.8863,-0.8874,-0.8889,-0.891,-0.8924,-0.8939,-0.8959,-0.8973,-0.899,-0.9003,-0.9028,-0.9043,-0.9059,-0.9076,-0.9081,-0.909,-0.9094,-0.9089,-0.9088,-0.9096,-0.9097,-0.9103,-0.9103,-0.9103,-0.9103,0,-0.8811,-0.8831,-0.8851,-0.8879,-0.8886,-0.8896,-0.892,-0.8931,-0.8947,-0.8965,-0.897,-0.8995,-0.9014,-0.9035,-0.9062,-0.9073,-0.9089,-0.9095,-0.9082,-0.9084,-0.9086,-0.9086,-0.909,-0.9092,-0.9099,-0.9099,-0.9099,0,-0.8811,-0.8821,-0.885,-0.886,-0.8873,-0.889,-0.8902,-0.8923,-0.8936,-0.8961,-0.8969,-0.899,-0.9008,-0.9038,-0.9059,-0.908,-0.9086,-0.9086,-0.9089,-0.9083,-0.9086,-0.9085,-0.9086,-0.9085,-0.9085,-0.9085,-0.9085,0,-0.8808,-0.8817,-0.8835,-0.8855,-0.8869,-0.8887,-0.8905,-0.8912,-0.8937,-0.895,-0.897,-0.8984,-0.9011,-0.9031,-0.9054,-0.9068,-0.9081,-0.9083,-0.9085,-0.908,-0.9072,-0.9076,-0.9079,-0.9083,-0.9083,-0.9084,-0.9084,-0.9084,-0.8803,-0.8813,-0.8835,-0.8853,-0.8869,-0.8885,-0.8897,-0.8914,-0.8931,-0.8954,-0.8965,-0.8985,-0.9007,-0.9039,-0.9053,-0.9069,-0.9073,-0.9076,-0.9076,-0.9077,-0.9075,-0.9069,-0.9073,-0.9073,-0.9074,-0.9074,-0.9074,0,-0.8802,-0.8816,-0.8833,-0.8857,-0.8872,-0.8881,-0.8902,-0.8913,-0.8931,-0.8949,-0.8966,-0.8989,-0.9009,-0.9031,-0.9052,-0.9061,-0.9067,-0.9066,-0.9066,-0.9069,-0.9071,-0.9067,-0.906,-0.906,-0.906,-0.906,-0.906,-0.906,-0.8803,-0.882,-0.8831,-0.8856,-0.8871,-0.889,-0.8901,-0.8916,-0.8931,-0.8956,-0.8972,-0.8986,-0.9007,-0.9029,-0.9048,-0.9054,-0.9061,-0.9058,-0.9066,-0.9067,-0.9068,-0.9069,-0.9066,-0.9059,-0.9059,-0.9062,-0.9062,-0.9062]},{"header":{"parameterUnit":"m.s-1","parameterCategory":1,"la1":30.2991,"la2":30.254,"lo1":-89.0895,"lo2":-89.0444,"dy":0.0017,"dx":0.0017,"nx":28,"ny":28,"refTime":"2024-03-15T03:00:00:Z","depth":0,"parameterNumber":3,"parameterNumberName":"V-component_of_WINDS"},"data":[0,0,0,0,0,0,0,0,0,0,0,0,0,0,0,0,0,0,0,0,0,0,0,0,0,0,0,0,0,0,0,0,0,0,0,0,0,0,0,0,0,0,0,0,0,0,0,0,0,0,0,0,0,0,0,0,0,0,2.3085,2.3086,0,2.3146,2.3146,2.3147,2.3155,2.3155,2.3154,2.3154,2.3216,2.3218,2.322,0,0,0,0,0,0,0,0,0,0,0,0,0,2.2976,2.2978,2.3085,2.3086,2.3086,2.3146,2.3146,2.3147,2.3155,2.3155,2.3154,2.3153,2.3215,2.3217,2.322,0,0,0,0,0,0,0,0,0,0,0,0,0,2.3029,2.2979,2.3085,2.3098,2.3099,2.3145,2.3146,2.3147,2.3156,2.3155,2.3154,2.3153,2.3214,2.3217,2.322,2.3258,0,0,2.323,2.3232,0,0,0,0,0,0,0,0,2.3026,2.3033,2.3095,2.3097,2.3099,2.3142,2.3131,2.3184,2.3156,2.3134,2.3154,2.3153,2.3192,2.3197,2.321,2.3261,2.3263,2.3231,2.3233,2.3234,2.3235,0,0,0,0,0,0,0,2.3022,2.303,2.3109,2.3096,2.3098,2.3101,2.3107,2.3141,2.3167,2.3136,2.3137,2.3144,2.3193,2.3207,2.3212,2.3264,2.3231,2.3234,2.3236,2.3237,2.3351,2.3352,0,0,0,0,0,0,2.3016,2.3027,2.3107,2.3111,2.306,2.3103,2.311,2.3129,2.3167,2.3172,2.3145,2.3144,2.3202,2.3208,2.3214,2.3262,2.3234,2.3237,2.3239,2.335,2.3351,2.3352,0,0,0,0,0,0,2.3014,2.3023,2.3105,2.3069,2.308,2.3106,2.3127,2.3131,2.3145,2.3173,2.3178,2.3154,2.3201,2.3209,2.3247,2.3264,2.3239,2.3242,2.3348,2.335,2.3352,2.3358,0,0,0,0,0,0,2.3011,2.3022,2.3037,2.3069,2.3082,2.3137,2.3128,2.3132,2.3151,2.3151,2.3184,2.3188,2.3201,2.3242,2.3251,2.3268,2.3244,2.3347,2.3349,2.3351,2.3356,2.3359,2.3362,0,0,0,0,0,2.3007,2.3035,2.3037,2.3047,2.31,2.3138,2.3145,2.3159,2.3152,2.3167,2.3185,2.3187,2.3261,2.3246,2.3256,2.3274,2.3346,2.3349,2.3351,2.3355,2.3358,2.3362,0,0,0,0,0,0,2.3004,2.304,2.3043,2.3082,2.3107,2.3139,2.3158,2.3163,2.319,2.3188,2.3205,2.3212,2.325,2.3266,2.3249,2.3314,2.3303,2.3307,2.3302,2.3306,2.3309,2.3306,2.3247,0,0,0,0,0,2.3007,2.3035,2.3065,2.3098,2.311,2.3132,2.3149,2.3158,2.3184,2.3195,2.3216,2.3241,2.327,2.3289,2.3316,2.3358,2.3366,2.3375,2.3378,2.338,2.3385,2.341,2.3415,2.336,2.336,2.336,0,0,2.3016,2.3039,2.3056,2.3098,2.3118,2.3147,2.3141,2.3171,2.3193,2.3199,2.3237,2.3253,2.3283,2.3323,2.3342,2.3337,2.3401,2.3383,2.3385,2.3388,2.3413,2.3418,2.3422,2.3362,2.3361,2.3361,0,0,2.3047,2.3066,2.3097,2.3117,2.3148,2.3162,2.3169,2.3201,2.3213,2.3251,2.3257,2.3283,2.3332,2.3353,2.337,2.341,2.3414,2.3418,2.3434,2.3458,2.3463,2.3467,2.3483,2.3489,2.3422,2.3422,2.3422,0,2.3054,2.3097,2.3111,2.3142,2.3161,2.3168,2.32,2.3219,2.3257,2.327,2.3264,2.3327,2.3347,2.3394,2.3403,2.3416,2.3426,2.3416,2.3461,2.3465,2.3469,2.3485,2.3491,2.3423,2.3422,2.3422,2.3422,0,2.3105,2.3135,2.3156,2.3194,2.3215,2.3245,2.3265,2.3284,2.3292,2.3307,2.3347,2.3371,2.3405,2.3416,2.3423,2.3464,2.3461,2.3457,2.3447,2.3475,2.349,2.3496,2.3423,2.3423,2.3423,2.3423,0,0,2.3136,2.3182,2.319,2.3208,2.3242,2.3266,2.3297,2.3331,2.3349,2.3374,2.3402,2.3444,2.3442,2.3461,2.347,2.3491,2.3524,2.3486,2.3487,2.3494,2.3573,2.3577,2.3584,2.3526,2.3527,2.3528,2.3572,0,2.3173,2.323,2.3244,2.3293,2.3322,2.3329,2.3357,2.3381,2.3396,2.3423,2.344,2.347,2.3464,2.3476,2.3497,2.3516,2.354,2.3512,2.3553,2.3554,2.3548,2.3591,2.3595,2.3636,2.3577,2.3578,2.3579,0,2.3223,2.3252,2.3304,2.3336,2.3349,2.3373,2.3406,2.3431,2.346,2.3469,2.3492,2.3499,2.3533,2.3519,2.3567,2.3548,2.3565,2.3577,2.3579,2.3585,2.357,2.3601,2.3649,2.3656,2.3588,2.3587,2.3587,0,2.3244,2.3295,2.3333,2.3348,2.3386,2.3403,2.342,2.3447,2.3467,2.3495,2.3509,2.354,2.3558,2.3583,2.3599,2.3587,2.3646,2.3633,2.3656,2.3656,2.367,2.367,2.3724,2.3677,2.3677,2.3677,2.3677,0,2.3285,2.3317,2.3343,2.3367,2.3403,2.3419,2.3454,2.3471,2.3496,2.3523,2.353,2.3556,2.3575,2.3603,2.3616,2.3655,2.3662,2.3672,2.3675,2.3673,2.3672,2.3686,2.3685,2.3679,2.3678,2.3678,2.3678,0,2.3315,2.3334,2.3376,2.3409,2.3418,2.3444,2.3472,2.3495,2.3511,2.3546,2.3555,2.3579,2.3613,2.3631,2.3673,2.3682,2.3726,2.3726,2.3717,2.3719,2.3742,2.374,2.3809,2.382,2.3764,2.3764,2.3764,0,2.3341,2.3366,2.3402,2.3421,2.3439,2.3469,2.349,2.3506,2.3527,2.3562,2.3582,2.3616,2.3645,2.3699,2.372,2.3753,2.3756,2.3778,2.3761,2.3758,2.376,2.3759,2.3763,2.3781,2.3782,2.3782,2.3783,0,2.3386,2.3395,2.3424,2.3457,2.3482,2.3508,2.3535,2.355,2.3571,2.3594,2.363,2.3652,2.3695,2.373,2.3765,2.3782,2.3787,2.3787,2.3795,2.3794,2.3788,2.3794,2.3728,2.3786,2.3786,2.3786,2.3786,2.3785,2.3417,2.3441,2.347,2.3503,2.3525,2.3549,2.3574,2.3592,2.3622,2.366,2.3667,2.3705,2.3733,2.378,2.3799,2.3829,2.3825,2.3835,2.3838,2.3841,2.3843,2.3781,2.3835,2.3835,2.3835,2.3835,2.3835,0,2.3465,2.3484,2.3514,2.3552,2.3578,2.3579,2.3609,2.3631,2.3664,2.369,2.3719,2.376,2.3794,2.3818,2.3853,2.3873,2.3876,2.3881,2.3882,2.3886,2.3844,2.3835,2.3879,2.3879,2.3879,2.3879,2.3879,2.3879,2.3493,2.3534,2.3545,2.3597,2.3616,2.3654,2.3671,2.3694,2.3715,2.3761,2.379,2.3805,2.3831,2.3868,2.39,2.3906,2.3919,2.3925,2.3932,2.3893,2.3889,2.3884,2.3876,2.3928,2.3928,2.3972,2.3973,2.3973]}]]